Regional Weather Roundup
Issued by NWS

Home | Current Version | Previous Version | Graphics & Text | Print | Product List | Glossary Off
Versions: 1 2 3 4 5 6 7 8 9 10 11 12 13 14 15 16 17 18 19 20 21 22 23 24 25 26 27 28 29 30 31 32 33 34 35 36 37 38 39 40 41 42 43 44 45 46 47 48 49 50

000
ASUS43 KMKX 251421
RWRWI

WISCONSIN REGIONAL WEATHER ROUNDUP
NATIONAL WEATHER SERVICE MILWAUKEE/SULLIVAN WI
800 AM CST TUE NOV 25 2014

NOTE: "FAIR" INDICATES FEW OR NO CLOUDS BELOW 12,000 FEET WITH NO
SIGNIFICANT WEATHER AND/OR OBSTRUCTIONS TO VISIBILITY.

WIZ001-002-006>008-014>016-023>028-251500-
NORTHWEST WISCONSIN

CITY           SKY/WX    TMP DP  RH WIND       PRES   REMARKS
SUPERIOR ARPT  CLEAR     10   7  88 W3        30.00R
ASHLAND        PTCLDY    10   7  87 W7        29.96S WCI  -1
HAYWARD        CLOUDY    11   7  84 CALM      29.95S
SIREN          CLEAR      8   6  92 CALM      30.00R
CUMBERLAND     LGT SNOW  12   9  85 W6        29.97R WCI   3
RICE LAKE      FLURRIES  14   9  81 W3        29.99S
CHETEK         LGT SNOW  14   9  81 W3        29.99R
LADYSMITH      FLURRIES  15  10  81 W7        29.97R WCI   5
EAU CLAIRE     CLOUDY    16   9  74 W8        30.00R WCI   5
MENOMONIE      FLURRIES  16  10  78 W6        30.01R WCI   8
NEW RICHMOND   FLURRIES  12   8  86 W6        30.01R WCI   2
OSCEOLA        FLURRIES  11  10  94 SW3       30.04S
$$

WIZ003>005-009-010-017-018-251500-
NORTH CENTRAL WISCONSIN

CITY           SKY/WX    TMP DP  RH WIND       PRES   REMARKS
MANITOWISH WTR LGT SNOW  14  11  88 NW6       29.87R WCI   5
ARBOR VITAE    LGT SNOW  17  13  85 NW8       29.87R WCI   6
WOODRUFF       LGT SNOW  17  13  85 NW8       29.87R WCI   6
RHINELANDER    LGT SNOW  15  11  83 W9        29.87R FOG     WCI   3
EAGLE RIVER    FLURRIES  18  11  73 NW8       29.85R WCI   8
LAND O LAKES   LGT SNOW  19  15  86 NW6       29.85R WCI  10
PHILLIPS       LGT SNOW  14  10  85 CALM      29.90R
TOMAHAWK       FLURRIES  14  11  88 W5        29.90R WCI   6
MEDFORD        LGT SNOW  16  12  84 W10       29.92R WCI   3
MERRILL        PTCLDY    16  11  82 NW7       29.91R WCI   6
$$

WIZ029-030-035-036-043>047-251500-
CENTRAL WISCONSIN

CITY           SKY/WX    TMP DP  RH WIND       PRES   REMARKS
WAUSAU         MOCLDY    18  12  77 NW10      29.92R WCI   6
MOSINEE        FLURRIES  18  16  93 NW9       29.93R WCI   6
MARSHFIELD     FLURRIES  18  11  74 NW14      29.94R WCI   4
STEVENS POINT  FLURRIES  18  14  83 W7        29.95R WCI   9
WAUPACA        CLOUDY    24  18  79 W6        29.95R WCI  17
WAUTOMA        CLOUDY    21  15  78 NW9       29.98R WCI  11
WISC RAPIDS    CLOUDY    19  12  74 NW10      29.98R WCI   7
CAMP DOUGLAS   FLURRIES  18  18 100 W13       29.99R WCI   4
$$

WIZ011>013-019>022-031-037>040-048>050-251500-
NORTHEAST WISCONSIN

CITY           SKY/WX    TMP DP  RH WIND       PRES   REMARKS
ANTIGO         FLURRIES  18  14  85 NW10      29.88R WCI   6
SHAWANO        CLOUDY    24  19  79 W5        29.92R WCI  19
OCONTO         CLOUDY    24  21  91 W7        29.91R WCI  15
STURGEON BAY   CLOUDY    25  19  80 NW15      29.89R WCI  12
GREEN BAY      LGT SNOW  24  21  88 W12       29.92R FOG     WCI  13
MANITOWOC      FLURRIES  24  22  91 W12       29.92R WCI  13
APPLETON       PTCLDY    21  19  93 W10       29.93R WCI  10
CLINTONVILLE   MOCLDY    23  19  86 NW9       29.92R WCI  13
OSHKOSH        CLOUDY    22  17  81 W9        29.94R HAZE    WCI  12
$$

WIZ032>034-041-042-053>061-251500-
SOUTHWEST WISCONSIN

CITY           SKY/WX    TMP DP  RH WIND       PRES   REMARKS
LA CROSSE      CLOUDY    20  13  74 W9        30.04R WCI   9
SPARTA         FLURRIES  18  13  80 NW6       30.02S WCI   9
VIROQUA        CLOUDY    17  16  98 W7        29.98S WCI   7
BOSCOBEL       CLOUDY    20  13  74 W8        30.05R WCI  10
PRAIRIE DU CHI FLURRIES  17  11  77 W12       30.06R WCI   5
PLATTEVILLE    CLOUDY    17  13  86 W10       30.04R WCI   4
$$

WIZ056-057-062-063-064-067-068-251500-
SOUTH CENTRAL WISCONSIN

CITY           SKY/WX    TMP DP  RH WIND       PRES   REMARKS
REEDSBURG      CLOUDY    18  14  82 W10       30.00R WCI   7
BARABOO/DELLS  FLURRIES  19  15  84 W9        29.99S WCI   7
LONE ROCK      CLOUDY    23  14  68 W5        30.03R WCI  17
MINERAL POINT  CLOUDY    19  16  86 W12       30.00R WCI   7
MADISON        CLOUDY    20  14  77 W9        30.00R WCI   9
MIDDLETON      CLOUDY    22  16  80 NW13      30.00R WCI   9
WATERTOWN      MOCLDY    20  18  90 W7        29.98R WCI  11
MONROE         CLEAR     18  14  86 W13       30.00R WCI   4
JANESVILLE     CLEAR     19  14  79 W6        30.01R WCI  11
$$

WIZ051-052-058>065-066-070>072-251500-
SOUTHEAST WISCONSIN

CITY           SKY/WX    TMP DP  RH WIND       PRES   REMARKS
MILWAUKEE      LGT SNOW  24  18  77 W9        29.97R WCI  14
WAUKESHA       NOT AVBL
MILWAUKEE/TIMM CLOUDY    23  18  80 W10G18    29.98R WCI  12
RACINE         LGT SNOW  22  18  85 W10       30.01R FOG     WCI  11
BURLINGTON     MOCLDY    18  14  85 W7        30.00R WCI   9
KENOSHA        LGT SNOW  22  17  81 W14       29.99R WCI   9
FOND DU LAC    FLURRIES  22  17  81 W13       29.95R WCI  10
SHEBOYGAN      CLOUDY    24  19  81 W12       29.95R WCI  13
WEST BEND      CLOUDY    23  19  86 W13       29.96R WCI  11
JUNEAU         MOCLDY    20  17  86 W6        29.98R WCI  12
$$

LSZ147-162-251500-
LAKE SUPERIOR

STATION/POSITION TIME  TEMP    WIND        PRES    WAVE
                       AIR SEA DIR/SP/G            HT/PER
                 (UTC) (F)     (DEG/KT/KT) (MB)    (FT/S)
DEVILS ISLAND    1400   19     290/ 11/ 14 1015.5R
PORT WING        1300   19     290/ 10/ 19 1014.9R
SAXON HARBOR     1300   19     240/  4/ 12 1013.9
$$

LMZ867-665-643>646-251500-
LAKE MICHIGAN

STATION/POSITION TIME  TEMP    WIND        PRES    WAVE
                       AIR SEA DIR/SP/G            HT/PER
                 (UTC) (F)     (DEG/KT/KT) (MB)    (FT/S)
CHAMBERS ISLAND  1300   25     280/  8/ 16 1010.8R
N MID LAKE BUOY  1350   29 42  300/ 23/ 29 1009.9R   5/ 5
NORTHPORT PIER   1327   26     300/ 12/ 22 1010.5
KEWAUNEE LAKESHO 1400   24     300/  7/ 12 1011.8R
SHEBOYGAN LAKESH 1400   24 36  270/ 11/ 12 1015.1R
PORT WASHINGTON  1340   24     280/  9/ 12 1015.2R
MILWAUKEE LAKESH 1400   25     300/ 12/ 16   N/A
S MID LAKE BUOY  1350   28 42  270/ 19/ 23 1014.9R   6/ 5
KENOSHA   LAKESH 1400   23     270/ 10/ 19 1015.9R
$$

TC  - TEMPERATURE IN CELSIUS
VSB - VISIBILITY IN STATUTE MILES
WCI - WIND CHILL INDEX
HX  - HEAT INDEX




USA.gov is the U.S. government's official web portal to all federal, state and local government web resources and services.